Houghton, MI

8:44 AM EDT on June 22, 2017 (GMT -0400)
Houghton County Memorial

Weather History for KCMX - December, 2013

Change the Weather History Date:

Saturday, December 7, 2013

  Actual Average Record
Temperature  
Mean Temperature 6 °F -  
Max Temperature 10 °F 26 °F 39 °F (1953)
Min Temperature 1 °F 15 °F -12 °F (1972)
Degree Days  
Heating Degree Days 60    
Moisture  
Dew Point 1 °F    
Average Humidity 75    
Maximum Humidity 85    
Minimum Humidity 62    
Precipitation  
Precipitation 0.00 in - - ()
Sea Level Pressure  
Sea Level Pressure 30.39 in    
Wind  
Wind Speed 17 mph (West)    
Max Wind Speed 24 mph    
Max Gust Speed 32 mph    
Visibility 1 miles    
Events Snow    
Averages and records for this station are not official NWS values.
T = Trace of Precipitation, MM = Missing Value Source: NWS Daily Summary

Daily Weather History Graph

Daily Weather History Graph

Search for Another Location

Airport or City:

Trip Planner

Search our weather history database for the weather conditions in past years. The results will help you decide how hot, cold, wet, or windy it might be!

Date:

Astronomy

Dec. 07, 2013 Rise Set
Actual Time 8:26 AM EST 5:04 PM EST
Civil Twilight 7:51 AM EST 5:39 PM EST
Nautical Twilight 7:12 AM EST 6:18 PM EST
Astronomical Twilight 6:35 AM EST 6:55 PM EST
Moon 11:57 AM EST (12/7) 11:01 PM EST (12/7)
Length of Visible Light 9h 48m
Length of Day
8h 37m
Waxing Crescent, 29% of the Moon is Illuminated
Dec 7
Waxing Crescent
Dec 9
First Quarter
Dec 17
Full
Dec 25
Last Quarter
Jan 1
New

Hourly Weather History & Observations

Time (EST) Temp. Windchill Dew Point Humidity Pressure Visibility Wind Dir Wind Speed Gust Speed Precip Events Conditions
12:17 AM 10.4 °F -6.6 °F 3.2 °F 73% 30.29 in 1.0 mi WNW 16.1 mph 26.5 mph 0.00 in Snow Light Snow
12:53 AM 10.0 °F -8.1 °F 3.0 °F 73% 30.37 in 2.0 mi WNW 18.4 mph - 0.00 in Snow Light Snow
12:59 AM 10.4 °F -8.2 °F 3.2 °F 73% 30.29 in 1.2 mi WNW 19.6 mph - 0.00 in Snow Light Snow
1:06 AM 10.4 °F -7.7 °F 3.2 °F 73% 30.29 in 0.8 mi WNW 18.4 mph 25.3 mph 0.00 in Snow Light Snow
1:14 AM 10.4 °F -6.0 °F 3.2 °F 73% 30.29 in 2.0 mi WNW 15.0 mph - 0.00 in Snow Light Snow
1:33 AM 10.4 °F -8.6 °F 1.4 °F 67% 30.30 in 1.2 mi NW 20.7 mph - 0.00 in Snow Light Snow
1:53 AM 10.0 °F -9.1 °F 3.0 °F 73% 30.38 in 1.0 mi WNW 20.7 mph - 0.00 in Snow Light Snow
2:00 AM 8.6 °F -10.5 °F 3.2 °F 79% 30.30 in 0.8 mi WNW 19.6 mph 27.6 mph 0.00 in Snow Light Snow
2:21 AM 10.4 °F -7.7 °F 3.2 °F 73% 30.31 in 1.0 mi WNW 18.4 mph - 0.00 in Snow Light Snow
2:32 AM 10.4 °F -4.8 °F 3.2 °F 73% 30.31 in 1.0 mi WNW 12.7 mph - 0.00 in Snow Light Snow
2:53 AM 9.0 °F -8.5 °F 3.0 °F 77% 30.39 in 1.0 mi WNW 16.1 mph 24.2 mph 0.00 in Snow Light Snow
3:07 AM 8.6 °F -8.3 °F 3.2 °F 79% 30.32 in 3.0 mi West 15.0 mph - 0.00 in Snow Light Snow
3:17 AM 8.6 °F -8.9 °F 3.2 °F 79% 30.32 in 1.8 mi WNW 16.1 mph - 0.00 in Snow Light Snow
3:53 AM 9.0 °F -7.9 °F 1.9 °F 73% 30.40 in 2.5 mi WNW 15.0 mph - 0.00 in Snow Light Snow
4:08 AM 8.6 °F -9.5 °F 1.4 °F 73% 30.33 in 1.2 mi WNW 17.3 mph - 0.00 in Snow Light Snow
4:19 AM 8.6 °F -10.0 °F 3.2 °F 79% 30.33 in 0.5 mi WNW 18.4 mph 26.5 mph 0.00 in Snow Snow
4:28 AM 8.6 °F -9.5 °F 3.2 °F 79% 30.33 in 1.0 mi WNW 17.3 mph 24.2 mph 0.00 in Snow Light Snow
4:34 AM 8.6 °F -8.9 °F 3.2 °F 79% 30.33 in 0.8 mi WNW 16.1 mph 24.2 mph 0.00 in Snow Light Snow
4:41 AM 10.4 °F -6.0 °F 3.2 °F 73% 30.33 in 1.0 mi WNW 15.0 mph - 0.00 in Snow Light Snow
4:53 AM 10.0 °F -6.5 °F 3.0 °F 73% 30.41 in 1.0 mi West 15.0 mph - 0.00 in Snow Light Snow
5:08 AM 10.4 °F -4.1 °F 3.2 °F 73% 30.33 in 0.8 mi West 11.5 mph - 0.00 in Snow Light Snow
5:20 AM 10.4 °F -7.7 °F 3.2 °F 73% 30.34 in 0.5 mi West 18.4 mph - 0.00 in Snow Snow
5:29 AM 10.4 °F -7.2 °F 3.2 °F 73% 30.34 in 0.5 mi West 17.3 mph 27.6 mph 0.00 in Snow Snow
5:39 AM 10.4 °F -7.2 °F 1.4 °F 67% 30.34 in 1.8 mi West 17.3 mph 26.5 mph 0.00 in Snow Light Snow
5:46 AM 8.6 °F -11.0 °F 1.4 °F 73% 30.34 in 1.2 mi West 20.7 mph 27.6 mph 0.00 in Snow Light Snow
5:53 AM 9.0 °F -10.5 °F 1.0 °F 70% 30.42 in 1.2 mi WNW 20.7 mph 27.6 mph 0.00 in Snow Light Snow
6:04 AM 10.4 °F -9.1 °F -0.4 °F 62% 30.34 in 3.0 mi West 21.9 mph 27.6 mph 0.00 in Snow Light Snow
6:15 AM 8.6 °F -12.3 °F -0.4 °F 67% 30.34 in 1.8 mi West 24.2 mph 32.2 mph 0.00 in Snow Light Snow
6:27 AM 8.6 °F -10.0 °F 1.4 °F 73% 30.34 in 0.8 mi West 18.4 mph 26.5 mph 0.00 in Snow Light Snow
6:36 AM 8.6 °F -10.5 °F 1.4 °F 73% 30.34 in 2.0 mi West 19.6 mph - 0.00 in Snow Light Snow
6:49 AM 8.6 °F -11.4 °F 1.4 °F 73% 30.35 in 0.8 mi WNW 21.9 mph 29.9 mph 0.00 in Snow Light Snow
6:53 AM 9.0 °F -10.5 °F 3.0 °F 77% 30.43 in 0.5 mi West 20.7 mph 29.9 mph 0.00 in Snow Snow
6:56 AM 8.6 °F -11.0 °F 3.2 °F 79% 30.35 in 0.2 mi West 20.7 mph - 0.00 in Snow Heavy Snow
7:09 AM 8.6 °F -10.5 °F 3.2 °F 79% 30.35 in 0.5 mi West 19.6 mph 27.6 mph 0.00 in Snow Snow
7:30 AM 8.6 °F -9.5 °F 3.2 °F 79% 30.36 in 1.0 mi West 17.3 mph - 0.00 in Snow Light Snow
7:53 AM 9.0 °F -9.5 °F 3.0 °F 77% 30.44 in 0.8 mi West 18.4 mph 27.6 mph 0.00 in Snow Light Snow
8:00 AM 8.6 °F -11.0 °F 3.2 °F 79% 30.36 in 0.2 mi WNW 20.7 mph 27.6 mph 0.00 in Snow Heavy Snow
8:15 AM 8.6 °F -11.4 °F 3.2 °F 79% 30.37 in 0.5 mi WNW 21.9 mph - 0.00 in Snow Snow
8:35 AM 8.6 °F -8.9 °F 3.2 °F 79% 30.37 in 0.2 mi WNW 16.1 mph 28.8 mph 0.00 in Snow Heavy Snow
8:45 AM 8.6 °F -11.4 °F 1.4 °F 73% 30.37 in 0.5 mi West 21.9 mph 27.6 mph 0.00 in Snow Snow
8:53 AM 9.0 °F -8.5 °F 1.0 °F 70% 30.45 in 0.5 mi West 16.1 mph 27.6 mph 0.00 in Snow Snow
9:02 AM 8.6 °F -11.0 °F -0.4 °F 67% 30.37 in 1.5 mi West 20.7 mph 27.6 mph 0.00 in Snow Light Snow
9:10 AM 8.6 °F -10.5 °F 1.4 °F 73% 30.38 in 0.2 mi West 19.6 mph - 0.00 in Snow Heavy Snow
9:18 AM 8.6 °F -10.5 °F 3.2 °F 79% 30.38 in 0.2 mi West 19.6 mph - 0.00 in Snow Heavy Snow
9:23 AM 8.6 °F -10.0 °F 3.2 °F 79% 30.38 in 0.5 mi WNW 18.4 mph 26.5 mph 0.00 in Snow Snow
9:34 AM 8.6 °F -10.0 °F 3.2 °F 79% 30.39 in 0.2 mi WNW 18.4 mph - 0.00 in Snow Heavy Snow
9:53 AM 9.0 °F -10.0 °F 3.0 °F 77% 30.47 in 0.2 mi West 19.6 mph - 0.00 in Snow Heavy Snow
10:53 AM 9.0 °F -9.5 °F 3.9 °F 80% 30.49 in 0.2 mi WNW 18.4 mph 26.5 mph 0.00 in Snow Heavy Snow
10:56 AM 8.6 °F -8.9 °F 3.2 °F 79% 30.41 in 0.5 mi WNW 16.1 mph - 0.00 in Snow Snow
11:06 AM 10.4 °F -9.5 °F 3.2 °F 73% 30.41 in 0.2 mi WNW 23.0 mph 31.1 mph 0.00 in Snow Heavy Snow
11:20 AM 10.4 °F -8.2 °F 1.4 °F 67% 30.41 in 0.8 mi WNW 19.6 mph 27.6 mph 0.00 in Snow Light Snow
11:38 AM 10.4 °F -8.6 °F 1.4 °F 67% 30.41 in 0.2 mi West 20.7 mph 27.6 mph 0.00 in Snow Heavy Snow
11:46 AM 10.4 °F -9.9 °F 1.4 °F 67% 30.41 in 0.5 mi West 24.2 mph 28.8 mph 0.00 in Snow Snow
11:53 AM 10.0 °F -9.1 °F 1.9 °F 70% 30.49 in 0.5 mi West 20.7 mph 27.6 mph 0.00 in Snow Snow
12:00 PM 10.4 °F -9.1 °F 1.4 °F 67% 30.41 in 0.2 mi WNW 21.9 mph - 0.00 in Snow Heavy Snow
12:15 PM 10.4 °F -8.6 °F 1.4 °F 67% 30.40 in 0.5 mi WNW 20.7 mph 31.1 mph 0.00 in Snow Snow
12:24 PM 10.4 °F -9.1 °F 1.4 °F 67% 30.40 in 0.2 mi WNW 21.9 mph 28.8 mph 0.00 in Snow Heavy Snow
12:53 PM 10.0 °F -9.1 °F 3.9 °F 76% 30.48 in 0.2 mi WNW 20.7 mph 27.6 mph 0.00 in Snow Heavy Snow
1:06 PM 10.4 °F -8.2 °F 1.4 °F 67% 30.40 in 1.0 mi West 19.6 mph 25.3 mph 0.00 in Snow Light Snow
1:12 PM 10.4 °F -7.2 °F 1.4 °F 67% 30.40 in 2.0 mi West 17.3 mph 26.5 mph 0.00 in   Haze
1:20 PM 10.4 °F -7.7 °F 1.4 °F 67% 30.40 in 0.8 mi West 18.4 mph - 0.00 in Snow Light Snow
1:26 PM 10.4 °F -8.2 °F 3.2 °F 73% 30.40 in 0.2 mi West 19.6 mph - 0.00 in Snow Heavy Snow
1:40 PM 8.6 °F -3.7 °F 1.4 °F 73% 30.41 in 1.0 mi WSW 8.1 mph - 0.00 in Snow Light Snow
1:43 PM 8.6 °F -6.3 °F 1.4 °F 73% 30.41 in 3.0 mi WSW 11.5 mph - 0.00 in Snow Light Snow
2:05 PM 6.8 °F -9.3 °F 1.4 °F 79% 30.40 in 0.5 mi WSW 12.7 mph 21.9 mph 0.00 in Snow Snow
2:12 PM 6.8 °F -7.8 °F 1.4 °F 79% 30.40 in 0.2 mi WSW 10.4 mph - 0.00 in Snow Heavy Snow
2:21 PM 6.8 °F -8.6 °F 1.4 °F 79% 30.40 in 0.2 mi WSW 11.5 mph 19.6 mph 0.00 in Snow Heavy Snow
2:30 PM 8.6 °F -8.3 °F 1.4 °F 73% 30.39 in 0.5 mi WSW 15.0 mph 20.7 mph 0.00 in Snow Snow
2:53 PM 7.0 °F -9.8 °F 1.0 °F 77% 30.48 in 0.5 mi WSW 13.8 mph 21.9 mph 0.00 in Snow Snow
2:56 PM 6.8 °F -10.7 °F 1.4 °F 79% 30.39 in 0.2 mi WSW 15.0 mph 21.9 mph 0.00 in Snow Heavy Snow
3:08 PM 6.8 °F -9.3 °F 1.4 °F 79% 30.39 in 0.2 mi WSW 12.7 mph 20.7 mph 0.00 in Snow Heavy Snow
3:24 PM 8.6 °F -8.9 °F 1.4 °F 73% 30.39 in 0.5 mi WSW 16.1 mph 24.2 mph 0.00 in Snow Snow
3:45 PM 6.8 °F -12.4 °F 1.4 °F 79% 30.39 in 0.8 mi WSW 18.4 mph 26.5 mph 0.00 in Snow Light Snow
3:53 PM 7.0 °F -10.4 °F 1.0 °F 77% 30.48 in 0.8 mi WSW 15.0 mph 25.3 mph 0.00 in Snow Light Snow
4:35 PM 5.0 °F -12.3 °F -2.2 °F 72% 30.40 in 1.2 mi SW 13.8 mph 20.7 mph 0.00 in Snow Light Snow
4:46 PM 5.0 °F -10.8 °F -2.2 °F 72% 30.40 in 3.0 mi WSW 11.5 mph 21.9 mph 0.00 in Snow Light Snow
4:53 PM 5.0 °F -10.8 °F -2.9 °F 70% 30.49 in 4.0 mi SW 11.5 mph - 0.00 in Snow Light Snow
5:14 PM 5.0 °F -11.6 °F -4.0 °F 66% 30.40 in 1.8 mi SW 12.7 mph - 0.00 in Snow Light Snow
5:32 PM 3.2 °F -13.1 °F -2.2 °F 78% 30.40 in 2.0 mi SW 11.5 mph - 0.00 in Snow Light Snow
5:47 PM 3.2 °F -12.2 °F -2.2 °F 78% 30.40 in 1.8 mi SW 10.4 mph 18.4 mph 0.00 in Snow Light Snow
5:53 PM 3.9 °F -11.3 °F -2.9 °F 73% 30.49 in 2.0 mi SW 10.4 mph - 0.00 in Snow Light Snow
6:06 PM 3.2 °F -13.1 °F -2.2 °F 78% 30.40 in 3.0 mi SW 11.5 mph 19.6 mph 0.00 in Snow Light Snow
6:16 PM 3.2 °F -12.2 °F -2.2 °F 78% 30.41 in 2.0 mi SW 10.4 mph 19.6 mph 0.00 in Snow Light Snow
6:32 PM 3.2 °F -12.2 °F -4.0 °F 72% 30.40 in 3.0 mi SW 10.4 mph - 0.00 in Snow Light Snow
6:53 PM 3.9 °F -13.7 °F -4.0 °F 70% 30.48 in 1.8 mi SW 13.8 mph - 0.00 in Snow Light Snow
7:02 PM 3.2 °F -14.6 °F -4.0 °F 72% 30.40 in 1.8 mi SW 13.8 mph - 0.00 in Snow Light Snow
7:40 PM 3.2 °F -15.9 °F -2.2 °F 78% 30.40 in 1.0 mi SW 16.1 mph 23.0 mph 0.00 in Snow Light Snow
7:49 PM 3.2 °F -15.3 °F -2.2 °F 78% 30.40 in 1.0 mi SW 15.0 mph 25.3 mph 0.00 in Snow Light Snow
7:53 PM 3.9 °F -13.7 °F -2.9 °F 73% 30.48 in 1.2 mi SW 13.8 mph 21.9 mph 0.00 in Snow Light Snow
8:07 PM 3.2 °F -13.9 °F -2.2 °F 78% 30.40 in 0.8 mi SW 12.7 mph 21.9 mph 0.00 in Snow Light Snow
8:27 PM 3.2 °F -15.3 °F -2.2 °F 78% 30.40 in 1.0 mi SW 15.0 mph 23.0 mph 0.00 in Snow Light Snow
8:41 PM 3.2 °F -13.9 °F -2.2 °F 78% 30.40 in 0.8 mi SW 12.7 mph 21.9 mph 0.00 in Snow Light Snow
8:53 PM 3.0 °F -13.3 °F -2.9 °F 76% 30.48 in 0.8 mi SW 11.5 mph - 0.00 in Snow Light Snow
9:43 PM 1.4 °F -14.5 °F -2.2 °F 85% 30.38 in 1.0 mi SW 10.4 mph - 0.00 in Snow Light Snow
9:53 PM 1.9 °F -13.8 °F -2.9 °F 80% 30.47 in 1.0 mi SW 10.4 mph - 0.00 in Snow Light Snow
10:27 PM 3.2 °F -11.3 °F -2.2 °F 78% 30.38 in 0.8 mi SW 9.2 mph - 0.00 in Snow Light Snow
10:39 PM 1.4 °F -12.5 °F -2.2 °F 85% 30.39 in 1.2 mi SW 8.1 mph - 0.00 in Snow Light Snow
10:48 PM 1.4 °F -11.3 °F -2.2 °F 85% 30.39 in 0.5 mi SW 6.9 mph - 0.00 in Snow Snow
10:49 PM 1.9 °F -11.8 °F -2.9 °F 80% 30.48 in 0.5 mi SW 8.1 mph - 0.00 in Snow Snow
11:30 PM 1.4 °F -12.5 °F -2.2 °F 85% 30.38 in 1.0 mi SW 8.1 mph - 0.00 in Snow Light Snow
11:44 PM 3.2 °F -13.1 °F -2.2 °F 78% 30.38 in 0.8 mi WSW 11.5 mph 18.4 mph 0.00 in Snow Light Snow
11:53 PM 3.9 °F -13.0 °F -2.0 °F 76% 30.47 in 0.8 mi WSW 12.7 mph - 0.00 in Snow Light Snow